User: anonymous   Login
Location: Unspecified
(0.0000°N, 0.0000°E)
Time: 10:50:12
(UTC+00:00)
Language:

YAOGAN 1 - Orbit

View from above orbital plane
View from above orbital plane
View from above satellite
View from above satellite

Ground track
Ground track

The orbit data is extracted from the following two-line orbital elements,

1 29092U 06015A   18200.64248386  .00000052  00000-0  13022-4 0  9995
2 29092  97.9890 217.1531 0001418  90.0586 270.0789 14.82921828661267
Epoch (UTC): 19 July 2018 15:25:10
Eccentricity: 0.0001418
inclination: 97.9890°
perigee height: 619 km
apogee height: 621 km
right ascension of ascending node: 217.1531°
argument of perigee: 90.0586°
revolutions per day: 14.82921828
mean anomaly at epoch: 270.0789°
orbit number at epoch: 66126

The dashed part of the orbit path shows where the satellite is in the earth's shadow,  

DLR